This demonstration page uses our WeatherBlox Daily Observations layout. Learn more.

Left ArrowRight Arrow

Hourly Observations for January 14, 2019

Temp ( °F °C ) Dew Point ( °F °C ) Humidity (%) Winds ( mph kmh ) Pressure ( in mb ) Visibility ( mi km ) Precip ( " mm )
12:51 am 00:51 Mostly Cloudy 42 5.6 41 5 96 96 E 5 7 30.11 1020 10 16 N/A
1:51 am 01:51 Mostly Cloudy 43 6.1 41 5 93 93 N N/A 30.11 1020 10 16 N/A
2:51 am 02:51 Mostly Clear 41 5 40 4.4 96 96 N N/A 30.12 1020 10 16 N/A
3:51 am 03:51 Mostly Cloudy 43 6.1 40 4.4 89 89 N N/A 30.12 1020 10 16 N/A
4:51 am 04:51 Partly Cloudy 43 6.1 40 4.4 89 89 SE 5 7 30.12 1020 10 16 N/A
5:51 am 05:51 Mostly Cloudy 45 7.2 40 4.4 83 83 ESE 8 13 30.14 1021 10 16 N/A
6:51 am 06:51 Mostly Cloudy 46 7.8 40 4.4 79 79 ESE 8 13 30.16 1021 10 16 N/A
7:51 am 07:51 Sunny 43 6.1 38 3.3 82 82 SSE 9 15 30.18 1022 10 16 N/A
8:51 am 08:51 Sunny 46 7.8 39 3.9 77 77 SE 9 15 30.19 1022 10 16 N/A
9:51 am 09:51 Sunny 47 8.3 39 3.9 74 74 SSE 9 15 30.21 1023 10 16 N/A
10:51 am 10:51 Sunny 51 10.6 40 4.4 66 66 SSE 10 17 30.20 1023 10 16 N/A
11:51 am 11:51 Sunny 55 12.8 39 3.9 55 55 SE 10 17 30.15 1021 10 16 N/A
12:51 pm 12:51 Sunny 58 14.4 39 3.9 50 50 VRB 5 7 30.12 1020 10 16 N/A
1:51 pm 13:51 Sunny 60 15.6 38 3.3 44 44 ESE 6 9 30.09 1019 10 16 N/A
2:51 pm 14:51 Sunny 62 16.7 37 2.8 40 40 SSE 12 19 30.07 1018 10 16 N/A
3:51 pm 15:51 Sunny 62 16.7 37 2.8 40 40 SSE 9 15 30.06 1018 10 16 N/A
4:51 pm 16:51 Sunny 61 16.1 38 3.3 43 43 S 6 9 30.06 1018 10 16 N/A
5:51 pm 17:51 Mostly Clear 58 14.4 37 2.8 46 46 N N/A 30.07 1018 10 16 N/A
6:51 pm 18:51 Clear 53 11.7 39 3.9 59 59 E 6 9 30.09 1019 10 16 N/A
7:51 pm 19:51 Clear 51 10.6 39 3.9 64 64 S 6 9 30.10 1019 10 16 N/A
8:51 pm 20:51 Clear 48 8.9 40 4.4 74 74 SE 6 9 30.09 1019 10 16 N/A
9:51 pm 21:51 Clear 48 8.9 39 3.9 71 71 ESE 7 11 30.10 1019 10 16 N/A
10:51 pm 22:51 Clear 48 8.9 38 3.3 68 68 E 12 19 30.10 1019 10 16 N/A
11:51 pm 23:51 Clear 48 8.9 38 3.3 68 68 SE 10 17 30.10 1019 10 16 N/A

Powered by AerisWeather